Progress Software Current Ratio 2006-2019 | PRGS

Progress Software current ratio from 2006 to 2019. Current ratio can be defined as a liquidity ratio that measures a company's ability to pay short-term obligations.
Progress Software Current Ratio Historical Data
Date Current Assets Current Liabilities Current Ratio
2019-11-30 $0.29B $0.24B 1.18
2019-08-31 $0.24B $0.22B 1.10
2019-05-31 $0.20B $0.20B 1.00
2019-02-28 $0.22B $0.18B 1.19
2018-11-30 $0.23B $0.19B 1.24
2018-08-31 $0.20B $0.19B 1.05
2018-05-31 $0.20B $0.20B 1.03
2018-02-28 $0.24B $0.20B 1.17
2017-11-30 $0.26B $0.21B 1.27
2017-08-31 $0.26B $0.21B 1.27
2017-05-31 $0.31B $0.21B 1.48
2017-02-28 $0.34B $0.22B 1.52
2016-11-30 $0.34B $0.20B 1.65
2016-08-31 $0.31B $0.20B 1.58
2016-05-31 $0.30B $0.20B 1.53
2016-02-29 $0.33B $0.20B 1.63
2015-11-30 $0.32B $0.20B 1.62
2015-08-31 $0.33B $0.20B 1.67
2015-05-31 $0.31B $0.20B 1.59
2015-02-28 $0.31B $0.19B 1.61
2014-11-30 $0.38B $0.15B 2.45
2014-08-31 $0.35B $0.15B 2.38
2014-05-31 $0.32B $0.15B 2.14
2014-02-28 $0.35B $0.16B 2.14
2013-11-30 $0.34B $0.17B 2.05
2013-08-31 $0.34B $0.16B 2.05
2013-05-31 $0.36B $0.17B 2.16
2013-02-28 $0.43B $0.18B 2.39
2012-11-30 $0.53B $0.24B 2.19
2012-08-31 $0.47B $0.22B 2.17
2012-05-31 $0.45B $0.23B 1.96
2012-02-29 $0.45B $0.25B 1.84
2011-11-30 $0.41B $0.23B 1.80
2011-08-31 $0.47B $0.23B 2.05
2011-05-31 $0.52B $0.23B 2.25
2011-02-28 $0.52B $0.24B 2.16
2010-11-30 $0.48B $0.24B 2.04
2010-08-31 $0.39B $0.21B 1.85
2010-05-31 $0.39B $0.22B 1.79
2010-02-28 $0.35B $0.25B 1.41
2009-11-30 $0.36B $0.23B 1.58
2009-08-31 $0.31B $0.22B 1.40
2009-05-31 $0.28B $0.23B 1.22
2009-02-28 $0.26B $0.23B 1.10
2008-11-30 $0.25B $0.24B 1.02
2008-08-31 $0.35B $0.21B 1.66
2008-05-31 $0.38B $0.22B 1.72
2008-02-29 $0.35B $0.22B 1.57
2007-11-30 $0.46B $0.23B 2.03
2007-08-31 $0.42B $0.21B 1.99
2007-05-31 $0.40B $0.21B 1.86
2007-02-28 $0.36B $0.21B 1.71
2006-11-30 $0.36B $0.21B 1.68
2006-08-31 $0.34B $0.20B 1.74
2006-05-31 $0.33B $0.20B 1.66
2006-02-28 $0.33B $0.21B 1.53
2005-11-30 $0.36B $0.18B 2.04
2005-08-31 $0.34B $0.17B 1.99
2005-05-31 $0.30B $0.17B 1.75
2005-02-28 $0.30B $0.18B 1.68
Sector Industry Market Cap Revenue
Computer and Technology Computer Software $2.095B $0.413B
Progress offers the leading platform for developing and deploying mission-critical business applications. Progress empowers enterprises and ISVs to build and deliver cognitive-first applications that harness big data to derive business insights and competitive advantage. Progress offers leading technologies for easily building powerful user interfaces across any type of device, a reliable, scalable and secure backend platform to deploy modern applications, leading data connectivity to all sources, and award-winning predictive analytics that brings the power of machine learning to any organization.
Stock Name Country Market Cap PE Ratio
Microsoft (MSFT) United States $1000.000B 33.07
Oracle (ORCL) United States $173.438B 16.09
Adobe (ADBE) United States $169.406B 53.97
SAP SE (SAP) Germany $165.982B 31.11
Salesforce (CRM) United States $161.532B 134.90
Intuit (INTU) United States $74.987B 50.90
VMware (VMW) United States $61.745B 33.55
Dassault Systemes SA (DASTY) France $46.291B 51.58
Autodesk (ADSK) United States $43.828B 187.91
ANSYS (ANSS) United States $23.349B 51.55
Synopsys (SNPS) United States $23.190B 44.40
Cadence Design Systems (CDNS) United States $20.927B 49.07
Citrix Systems (CTXS) United States $16.702B 31.28
SS&C Technologies Holdings (SSNC) United States $16.540B 18.81
Open Text (OTEX) Canada $12.556B 38.67
PTC (PTC) United States $9.938B 62.81
Aspen Technology (AZPN) United States $9.570B 35.79
Trend Micro (TMICY) Japan $7.383B 27.53
Pegasystems (PEGA) United States $6.959B 0.00
Konami (KNMCY) Japan $5.678B 19.71
Nuance Communications (NUAN) United States $5.576B 22.55
Manhattan Associates (MANH) United States $5.487B 58.81
ACI Worldwide (ACIW) United States $4.144B 38.55
Blackbaud (BLKB) United States $3.933B 54.77
Verint Systems (VRNT) United States $3.890B 22.56
Descartes Systems Group (DSGX) Canada $3.856B 114.55
Cornerstone OnDemand (CSOD) United States $3.698B 380.69
PROS Holdings (PRO) United States $2.697B 0.00
Bottomline Technologies (EPAY) United States $2.418B 105.77
CommVault Systems (CVLT) United States $2.084B 81.39
MicroStrategy (MSTR) United States $1.470B 433.82
Sapiens (SPNS) Israel $1.317B 38.13
QAD (QADB) United States $0.758B 465.63
Simulations Plus (SLP) United States $0.595B 67.42
Magic Software Enterprises (MGIC) Israel $0.545B 19.53
American Software (AMSWA) United States $0.479B 51.72
Rosetta Stone (RST) United States $0.435B 0.00
Avid Technology (AVID) United States $0.381B 20.60
Smith Micro Software (SMSI) United States $0.193B 17.28
Icad Inc (ICAD) United States $0.168B 0.00
ServiceSource (SREV) United States $0.166B 0.00
OptimizeRx (OPRX) United States $0.145B 0.00
Park City (PCYG) United States $0.098B 35.29
ImageWare Systems (IWSY) United States $0.053B 0.00
NetSol Technologies (NTWK) United States $0.050B 6.54
GSE Systems (GVP) United States $0.035B 11.60
Neonode (NEON) Sweden $0.024B 0.00
BSQUARE (BSQR) United States $0.020B 0.00
CounterPath (CPAH) Canada $0.012B 0.00